Time,TemperatureF,DewpointF,PressureIn,WindDirection,WindDirectionDegrees,WindSpeedMPH,WindSpeedGustMPH,Humidity,HourlyPrecipIn,Conditions,Clouds,dailyrainin,SoftwareType,DateUTC
2013-03-19 00:15:00,38.8,37.0,29.88,North,353,0.0,2.0,93,0.03,,,0.01,weatherlink.com 1.10,2013-03-19 04:15:00,
2013-03-19 00:30:00,38.8,37.0,29.89,WSW,245,2.0,3.0,92,0.02,,,0.01,weatherlink.com 1.10,2013-03-19 04:30:00,
2013-03-19 00:45:00,38.8,37.0,29.90,West,269,1.0,5.0,92,0.02,,,0.02,weatherlink.com 1.10,2013-03-19 04:45:00,
2013-03-19 01:00:00,38.6,37.0,29.89,West,281,0.0,3.0,92,0.02,,,0.02,weatherlink.com 1.10,2013-03-19 05:00:00,
2013-03-19 01:15:00,38.4,36.0,29.87,NNW,348,0.0,1.0,92,0.01,,,0.02,weatherlink.com 1.10,2013-03-19 05:15:00,
2013-03-19 01:30:00,38.4,36.0,29.85,NNW,348,1.0,2.0,92,0.01,,,0.02,weatherlink.com 1.10,2013-03-19 05:30:00,
2013-03-19 01:45:00,38.4,36.0,29.86,NNW,348,0.0,0.0,92,0.00,,,0.02,weatherlink.com 1.10,2013-03-19 05:45:00,
2013-03-19 02:00:00,38.4,36.0,29.86,NNW,348,0.0,1.0,92,0.00,,,0.02,weatherlink.com 1.10,2013-03-19 06:00:00,
2013-03-19 02:15:00,38.4,36.0,29.84,NNW,348,0.0,1.0,92,0.00,,,0.02,weatherlink.com 1.10,2013-03-19 06:15:00,
2013-03-19 02:30:00,38.4,36.0,29.84,NNW,348,0.0,0.0,92,0.00,,,0.02,weatherlink.com 1.10,2013-03-19 06:30:00,
2013-03-19 02:45:00,38.4,36.0,29.83,NNW,348,0.0,0.0,92,0.00,,,0.02,weatherlink.com 1.10,2013-03-19 06:45:00,
2013-03-19 03:00:00,38.4,36.0,29.83,NNW,348,0.0,0.0,92,0.00,,,0.02,weatherlink.com 1.10,2013-03-19 07:00:00,
2013-03-19 03:15:00,38.4,36.0,29.82,NNW,348,0.0,0.0,92,0.00,,,0.02,weatherlink.com 1.10,2013-03-19 07:15:00,
2013-03-19 03:31:00,38.4,36.0,29.82,NW,310,0.0,2.0,92,0.00,,,0.02,weatherlink.com 1.10,2013-03-19 07:31:00,
2013-03-19 03:46:00,38.5,37.0,29.81,NW,310,0.0,1.0,93,0.00,,,0.02,weatherlink.com 1.10,2013-03-19 07:46:00,
2013-03-19 04:01:00,38.5,37.0,29.81,NW,310,0.0,0.0,93,0.00,,,0.02,weatherlink.com 1.10,2013-03-19 08:01:00,
2013-03-19 04:16:00,38.4,37.0,29.80,NW,310,0.0,0.0,93,0.00,,,0.02,weatherlink.com 1.10,2013-03-19 08:16:00,
2013-03-19 04:31:00,38.4,37.0,29.79,NW,310,0.0,0.0,93,0.00,,,0.02,weatherlink.com 1.10,2013-03-19 08:31:00,
2013-03-19 04:46:00,38.5,37.0,29.78,NW,310,0.0,0.0,93,0.00,,,0.02,weatherlink.com 1.10,2013-03-19 08:46:00,
2013-03-19 05:01:00,38.6,37.0,29.79,NW,310,0.0,0.0,93,0.00,,,0.02,weatherlink.com 1.10,2013-03-19 09:01:00,
2013-03-19 05:16:00,38.6,37.0,29.78,NW,310,0.0,0.0,93,0.00,,,0.02,weatherlink.com 1.10,2013-03-19 09:16:00,
2013-03-19 05:31:00,38.6,37.0,29.77,NW,310,0.0,1.0,93,0.00,,,0.02,weatherlink.com 1.10,2013-03-19 09:31:00,
2013-03-19 06:46:00,38.7,37.0,29.78,NNW,346,0.0,0.0,92,0.00,,,0.02,weatherlink.com 1.10,2013-03-19 10:46:00,
2013-03-19 07:16:00,38.8,37.0,29.80,WNW,300,0.0,2.0,92,0.00,,,0.02,weatherlink.com 1.10,2013-03-19 11:16:00,
2013-03-19 07:31:00,38.8,37.0,29.80,WNW,301,0.0,2.0,92,0.00,,,0.02,weatherlink.com 1.10,2013-03-19 11:31:00,
2013-03-19 07:46:00,38.8,37.0,29.80,NE,55,0.0,4.0,92,0.00,,,0.02,weatherlink.com 1.10,2013-03-19 11:46:00,
2013-03-19 08:01:00,38.8,37.0,29.81,NW,321,0.0,2.0,92,0.00,,,0.02,weatherlink.com 1.10,2013-03-19 12:01:00,
2013-03-19 08:16:00,38.7,37.0,29.82,WSW,252,1.0,3.0,92,0.00,,,0.02,weatherlink.com 1.10,2013-03-19 12:16:00,
2013-03-19 08:46:00,38.4,36.0,29.82,West,276,0.0,5.0,89,0.00,,,0.02,weatherlink.com 1.10,2013-03-19 12:46:00,
2013-03-19 09:01:00,38.5,36.0,29.83,West,276,0.0,2.0,89,0.00,,,0.02,weatherlink.com 1.10,2013-03-19 13:01:00,
2013-03-19 09:16:00,38.6,36.0,29.83,West,281,1.0,2.0,89,0.00,,,0.02,weatherlink.com 1.10,2013-03-19 13:16:00,
2013-03-19 10:01:00,40.0,37.0,29.82,North,353,1.0,3.0,87,0.00,,,0.02,weatherlink.com 1.10,2013-03-19 14:01:00,
2013-03-19 10:31:00,43.1,38.0,29.82,North,1,0.0,4.0,83,0.00,,,0.02,weatherlink.com 1.10,2013-03-19 14:31:00,
2013-03-19 10:46:00,44.7,39.0,29.82,NNW,340,0.0,5.0,81,0.00,,,0.02,weatherlink.com 1.10,2013-03-19 14:46:00,
2013-03-19 11:01:00,46.0,39.0,29.81,WNW,290,1.0,5.0,77,0.00,,,0.02,weatherlink.com 1.10,2013-03-19 15:01:00,
2013-03-19 11:16:00,47.1,39.0,29.82,WNW,293,5.0,7.0,74,0.00,,,0.02,weatherlink.com 1.10,2013-03-19 15:16:00,
2013-03-19 11:31:00,47.4,39.0,29.82,WNW,299,2.0,5.0,72,0.00,,,0.02,weatherlink.com 1.10,2013-03-19 15:31:00,
2013-03-19 11:46:00,48.9,39.0,29.81,West,265,2.0,6.0,69,0.00,,,0.02,weatherlink.com 1.10,2013-03-19 15:46:00,
2013-03-19 12:02:00,49.7,40.0,29.80,NW,321,1.0,4.0,69,0.00,,,0.02,weatherlink.com 1.10,2013-03-19 16:02:00,
2013-03-19 12:17:00,50.8,40.0,29.79,North,4,2.0,4.0,67,0.00,,,0.02,weatherlink.com 1.10,2013-03-19 16:17:00,
2013-03-19 12:32:00,51.2,39.0,29.78,North,5,1.0,3.0,64,0.00,,,0.02,weatherlink.com 1.10,2013-03-19 16:32:00,
2013-03-19 12:47:00,51.4,39.0,29.77,WNW,286,2.0,7.0,62,0.00,,,0.02,weatherlink.com 1.10,2013-03-19 16:47:00,
2013-03-19 13:02:00,53.5,39.0,29.77,North,8,2.0,6.0,59,0.00,,,0.02,weatherlink.com 1.10,2013-03-19 17:02:00,
2013-03-19 13:17:00,54.2,38.0,29.76,West,281,5.0,9.0,54,0.00,,,0.02,weatherlink.com 1.10,2013-03-19 17:17:00,
2013-03-19 13:32:00,55.4,38.0,29.77,SSW,194,5.0,9.0,53,0.00,,,0.02,weatherlink.com 1.10,2013-03-19 17:32:00,
2013-03-19 13:47:00,55.3,38.0,29.77,WSW,257,1.0,9.0,53,0.00,,,0.02,weatherlink.com 1.10,2013-03-19 17:47:00,
2013-03-19 14:02:00,56.0,39.0,29.75,NW,304,0.0,4.0,53,0.00,,,0.02,weatherlink.com 1.10,2013-03-19 18:02:00,
2013-03-19 14:17:00,56.0,41.0,29.74,SW,234,1.0,3.0,57,0.00,,,0.02,weatherlink.com 1.10,2013-03-19 18:17:00,
2013-03-19 14:33:00,56.4,42.0,29.73,SSW,198,1.0,3.0,58,0.00,,,0.02,weatherlink.com 1.10,2013-03-19 18:33:00,
2013-03-19 14:47:00,56.4,43.0,29.73,West,281,1.0,5.0,61,0.00,,,0.02,weatherlink.com 1.10,2013-03-19 18:47:00,
2013-03-19 15:02:00,57.1,41.0,29.73,WSW,239,3.0,4.0,55,0.00,,,0.02,weatherlink.com 1.10,2013-03-19 19:02:00,
2013-03-19 15:17:00,58.4,35.0,29.73,WSW,244,7.0,12.0,41,0.00,,,0.02,weatherlink.com 1.10,2013-03-19 19:17:00,
2013-03-19 15:33:00,58.4,32.0,29.72,WSW,257,1.0,9.0,37,0.00,,,0.02,weatherlink.com 1.10,2013-03-19 19:33:00,
2013-03-19 15:47:00,58.7,32.0,29.72,WSW,249,2.0,9.0,37,0.00,,,0.02,weatherlink.com 1.10,2013-03-19 19:47:00,
2013-03-19 16:02:00,58.9,32.0,29.72,West,272,10.0,12.0,37,0.00,,,0.02,weatherlink.com 1.10,2013-03-19 20:02:00,
2013-03-19 16:17:00,58.9,33.0,29.73,WSW,243,3.0,8.0,38,0.00,,,0.02,weatherlink.com 1.10,2013-03-19 20:17:00,
2013-03-19 16:32:00,59.6,34.0,29.73,West,268,0.0,7.0,38,0.00,,,0.02,weatherlink.com 1.10,2013-03-19 20:32:00,
2013-03-19 16:47:00,59.4,34.0,29.73,West,276,3.0,10.0,38,0.00,,,0.02,weatherlink.com 1.10,2013-03-19 20:47:00,
2013-03-19 17:02:00,59.9,32.0,29.73,WNW,286,0.0,9.0,35,0.00,,,0.02,weatherlink.com 1.10,2013-03-19 21:02:00,
2013-03-19 17:17:00,61.3,32.0,29.72,SW,236,3.0,9.0,33,0.00,,,0.02,weatherlink.com 1.10,2013-03-19 21:17:00,
2013-03-19 17:32:00,59.9,31.0,29.73,WSW,242,5.0,8.0,33,0.00,,,0.02,weatherlink.com 1.10,2013-03-19 21:32:00,
2013-03-19 17:47:00,58.8,27.0,29.74,WSW,254,2.0,8.0,30,0.00,,,0.02,weatherlink.com 1.10,2013-03-19 21:47:00,
2013-03-19 18:02:00,60.2,25.0,29.74,West,267,6.0,9.0,26,0.00,,,0.02,weatherlink.com 1.10,2013-03-19 22:02:00,
2013-03-19 18:17:00,59.8,16.0,29.75,WNW,286,9.0,13.0,18,0.00,,,0.02,weatherlink.com 1.10,2013-03-19 22:17:00,
2013-03-19 18:32:00,58.8,14.0,29.75,WSW,255,6.0,18.0,17,0.00,,,0.02,weatherlink.com 1.10,2013-03-19 22:32:00,
2013-03-19 18:47:00,58.1,12.0,29.76,West,271,7.0,14.0,16,0.00,,,0.02,weatherlink.com 1.10,2013-03-19 22:47:00,
2013-03-19 19:02:00,57.4,11.0,29.78,NE,41,7.0,9.0,16,0.00,,,0.02,weatherlink.com 1.10,2013-03-19 23:02:00,
2013-03-19 19:17:00,56.8,8.0,29.79,WSW,250,5.0,12.0,14,0.00,,,0.02,weatherlink.com 1.10,2013-03-19 23:17:00,
2013-03-19 19:32:00,56.1,10.0,29.80,WNW,290,3.0,11.0,16,0.00,,,0.02,weatherlink.com 1.10,2013-03-19 23:32:00,
2013-03-19 19:48:00,55.0,12.0,29.81,WNW,286,8.0,13.0,18,0.00,,,0.02,weatherlink.com 1.10,2013-03-19 23:48:00,
2013-03-19 20:02:00,54.1,12.0,29.82,SW,219,5.0,10.0,19,0.00,,,0.02,weatherlink.com 1.10,2013-03-20 00:02:00,
2013-03-19 20:17:00,53.5,13.0,29.82,WNW,293,0.0,12.0,20,0.00,,,0.02,weatherlink.com 1.10,2013-03-20 00:17:00,
2013-03-19 20:32:00,52.9,11.0,29.83,West,269,4.0,9.0,19,0.00,,,0.02,weatherlink.com 1.10,2013-03-20 00:32:00,
2013-03-19 20:47:00,52.4,12.0,29.84,WSW,251,2.0,8.0,20,0.00,,,0.02,weatherlink.com 1.10,2013-03-20 00:47:00,
2013-03-19 21:02:00,52.0,11.0,29.85,WSW,248,2.0,11.0,19,0.00,,,0.02,weatherlink.com 1.10,2013-03-20 01:02:00,
2013-03-19 21:17:00,51.5,10.0,29.86,WNW,286,1.0,8.0,19,0.00,,,0.02,weatherlink.com 1.10,2013-03-20 01:17:00,
2013-03-19 21:32:00,51.1,11.0,29.86,NNW,348,4.0,9.0,20,0.00,,,0.02,weatherlink.com 1.10,2013-03-20 01:32:00,
2013-03-19 21:48:00,50.6,11.0,29.87,NNW,346,2.0,10.0,20,0.00,,,0.02,weatherlink.com 1.10,2013-03-20 01:48:00,
2013-03-19 22:02:00,50.0,11.0,29.87,West,276,1.0,8.0,21,0.00,,,0.02,weatherlink.com 1.10,2013-03-20 02:02:00,
2013-03-19 22:18:00,49.6,11.0,29.88,North,1,5.0,9.0,21,0.00,,,0.02,weatherlink.com 1.10,2013-03-20 02:18:00,
2013-03-19 22:33:00,49.2,12.0,29.88,NW,315,3.0,10.0,22,0.00,,,0.02,weatherlink.com 1.10,2013-03-20 02:33:00,
2013-03-19 22:47:00,49.0,10.0,29.89,WNW,290,4.0,12.0,21,0.00,,,0.02,weatherlink.com 1.10,2013-03-20 02:47:00,
2013-03-19 23:02:00,48.5,12.0,29.90,NW,305,1.0,12.0,23,0.00,,,0.02,weatherlink.com 1.10,2013-03-20 03:02:00,
2013-03-19 23:18:00,47.8,11.0,29.91,West,281,2.0,7.0,23,0.00,,,0.02,weatherlink.com 1.10,2013-03-20 03:18:00,
2013-03-19 23:33:00,47.7,8.0,29.91,NE,36,10.0,10.0,20,0.00,,,0.02,weatherlink.com 1.10,2013-03-20 03:33:00,
2013-03-19 23:48:00,47.5,8.0,29.91,West,260,3.0,13.0,20,0.00,,,0.02,weatherlink.com 1.10,2013-03-20 03:48:00,